ENT5PY EPKT-LGIR

Flight info

Callsign ENT5PY
Flight time 2h 20m
Altitude 33000
Route BABKO DCT NIDOK DCT PARAK DCT IBISI/N0442F370 DCT MAKED/N0444F390 DCT SIGFO DCT KEA UL607 GIVIS T514 XAVIS
Aircraft B738/M-SDE2E3FGHIRWXY/LB1

Departure

Time 2026-04-29 15:16
Airport Katowice Wojciech Korfanty International Airport (EPKT)

Arrival

Time 2026-04-29 17:37
Airport Heraklion International Nikos Kazantzakis Airport (LGIR)
Time Latitude Longitude Altitude Speed Heading
2026-04-29 14:52 50.47148 19.08345 997 ft 0 kts 180°
2026-04-29 15:09 50.47166 19.08345 1000 ft 4 kts 180°
2026-04-29 15:09 50.47193 19.08345 999 ft 4 kts 180°
2026-04-29 15:09 50.47214 19.08345 997 ft 4 kts 200°
2026-04-29 15:09 50.47231 19.08368 1000 ft 4 kts 259°
2026-04-29 15:10 50.47232 19.08407 997 ft 4 kts 270°
2026-04-29 15:10 50.47232 19.08417 997 ft 0 kts 270°
2026-04-29 15:12 50.47232 19.08407 997 ft 3 kts 270°
2026-04-29 15:12 50.47232 19.08370 1003 ft 8 kts 270°
2026-04-29 15:12 50.47233 19.08182 1000 ft 18 kts 270°
2026-04-29 15:12 50.47234 19.07953 1002 ft 24 kts 270°
2026-04-29 15:13 50.47234 19.07667 1000 ft 26 kts 270°
2026-04-29 15:13 50.47235 19.07388 1000 ft 25 kts 270°
2026-04-29 15:13 50.47235 19.07128 1002 ft 23 kts 270°
2026-04-29 15:13 50.47236 19.06963 1002 ft 23 kts 270°
2026-04-29 15:14 50.47245 19.06658 997 ft 19 kts 302°
2026-04-29 15:14 50.47324 19.06625 1000 ft 18 kts
2026-04-29 15:14 50.47428 19.06487 996 ft 18 kts 270°
2026-04-29 15:14 50.47428 19.06297 994 ft 17 kts 270°
2026-04-29 15:15 50.47429 19.06114 992 ft 16 kts 270°
2026-04-29 15:15 50.47479 19.05978 994 ft 16 kts 351°
2026-04-29 15:15 50.47552 19.05979 994 ft 15 kts
2026-04-29 15:15 50.47604 19.06152 994 ft 17 kts 91°
2026-04-29 15:16 50.47603 19.06395 994 ft 60 kts 90°
2026-04-29 15:16 50.47600 19.07488 999 ft 138 kts 90°
2026-04-29 15:16 50.47570 19.09269 1386 ft 172 kts 88°
2026-04-29 15:16 50.47552 19.11099 2679 ft 163 kts 84°
2026-04-29 15:17 50.47477 19.13039 3250 ft 197 kts 101°
2026-04-29 15:17 50.46573 19.14870 3465 ft 236 kts 145°
2026-04-29 15:17 50.44964 19.15734 3810 ft 262 kts 163°
2026-04-29 15:17 50.43127 19.16378 4400 ft 276 kts 165°
2026-04-29 15:18 50.41247 19.17001 5415 ft 275 kts 165°
2026-04-29 15:18 50.39375 19.17637 6394 ft 276 kts 165°
2026-04-29 15:18 50.37483 19.18300 7190 ft 282 kts 164°
2026-04-29 15:18 50.35549 19.18991 7990 ft 287 kts 164°
2026-04-29 15:19 50.33598 19.19707 8873 ft 289 kts 164°
2026-04-29 15:19 50.31644 19.20438 9807 ft 289 kts 164°
2026-04-29 15:19 50.29667 19.21175 10561 ft 295 kts 164°
2026-04-29 15:19 50.27604 19.21952 10879 ft 317 kts 164°
2026-04-29 15:20 50.25374 19.22798 11075 ft 341 kts 164°
2026-04-29 15:20 50.23034 19.23691 11624 ft 351 kts 165°
2026-04-29 15:20 50.20637 19.24595 12326 ft 356 kts 165°
2026-04-29 15:20 50.18217 19.25510 13061 ft 360 kts 165°
2026-04-29 15:21 50.15768 19.26438 13790 ft 365 kts 166°
2026-04-29 15:21 50.13288 19.27376 14470 ft 369 kts 166°
2026-04-29 15:21 50.10767 19.28330 15049 ft 376 kts 166°
2026-04-29 15:21 50.08204 19.29298 15677 ft 381 kts 166°
2026-04-29 15:22 50.05611 19.30277 16285 ft 386 kts 167°
2026-04-29 15:22 50.02982 19.31268 16899 ft 392 kts 167°
2026-04-29 15:22 50.00314 19.32275 17481 ft 397 kts 167°
2026-04-29 15:22 49.97609 19.33294 18072 ft 403 kts 167°
2026-04-29 15:23 49.94866 19.34325 18645 ft 408 kts 167°
2026-04-29 15:23 49.92080 19.35373 19012 ft 417 kts 169°
2026-04-29 15:23 49.89228 19.36441 19455 ft 423 kts 169°
2026-04-29 15:23 49.86362 19.37515 20085 ft 425 kts 170°
2026-04-29 15:24 49.83485 19.38594 20743 ft 425 kts 171°
2026-04-29 15:24 49.80610 19.39669 21388 ft 426 kts 171°
2026-04-29 15:24 49.77709 19.40752 21866 ft 432 kts 171°
2026-04-29 15:24 49.74772 19.41853 22316 ft 437 kts 171°
2026-04-29 15:25 49.71805 19.42956 22787 ft 440 kts 172°
2026-04-29 15:25 49.68821 19.44065 23332 ft 442 kts 172°
2026-04-29 15:25 49.65815 19.45180 23770 ft 446 kts 173°
2026-04-29 15:25 49.62767 19.45778 24130 ft 439 kts 188°
2026-04-29 15:26 49.59798 19.45113 24570 ft 426 kts 203°
2026-04-29 15:26 49.57122 19.43479 25010 ft 414 kts 217°
2026-04-29 15:26 49.54658 19.41217 25445 ft 413 kts 219°
2026-04-29 15:26 49.52177 19.38943 25779 ft 418 kts 219°
2026-04-29 15:27 49.49660 19.36664 26128 ft 421 kts 218°
2026-04-29 15:27 49.47123 19.34390 26522 ft 423 kts 218°
2026-04-29 15:27 49.44540 19.32090 26909 ft 425 kts 218°
2026-04-29 15:27 49.41968 19.29811 27262 ft 428 kts 218°
2026-04-29 15:28 49.39415 19.27554 27596 ft 430 kts 218°
2026-04-29 15:28 49.37656 19.26003 27824 ft 432 kts 218°
2026-04-29 15:28 49.34190 19.22949 28295 ft 435 kts 218°
2026-04-29 15:28 49.31559 19.20634 28624 ft 438 kts 218°
2026-04-29 15:29 49.28909 19.18306 28973 ft 440 kts 218°
2026-04-29 15:29 49.23651 19.13705 30294 ft 428 kts 218°
2026-04-29 15:30 49.18486 19.09187 30905 ft 431 kts 218°
2026-04-29 15:30 49.15872 19.06893 31085 ft 436 kts 218°
2026-04-29 15:30 49.13236 19.04588 31417 ft 436 kts 218°
2026-04-29 15:30 49.10605 19.02295 31760 ft 436 kts 217°
2026-04-29 15:31 49.07967 19.00000 32035 ft 437 kts 217°
2026-04-29 15:31 49.05405 18.97772 32309 ft 437 kts 217°
2026-04-29 15:31 49.02776 18.95493 32783 ft 433 kts 217°
2026-04-29 15:31 49.00155 18.93218 33037 ft 435 kts 217°
2026-04-29 15:32 48.97522 18.90932 33222 ft 439 kts 217°
2026-04-29 15:32 48.92216 18.86343 33247 ft 438 kts 217°
2026-04-29 15:32 48.89482 18.84248 33220 ft 447 kts 205°
2026-04-29 15:33 48.86392 18.83334 33207 ft 461 kts 187°
2026-04-29 15:33 48.83167 18.83855 33236 ft 474 kts 169°
2026-04-29 15:33 48.80014 18.85391 33252 ft 476 kts 166°
2026-04-29 15:34 48.73741 18.88664 33226 ft 477 kts 166°
2026-04-29 15:34 48.67457 18.91886 33224 ft 476 kts 167°
2026-04-29 15:35 48.61163 18.95015 33164 ft 476 kts 167°
2026-04-29 15:35 48.54860 18.98098 33195 ft 477 kts 168°
2026-04-29 15:36 48.48586 19.01088 33214 ft 476 kts 168°
2026-04-29 15:36 48.42280 19.04189 33193 ft 478 kts 168°
2026-04-29 15:37 48.35960 19.07297 33157 ft 478 kts 168°
2026-04-29 15:37 48.29642 19.10377 33168 ft 477 kts 168°
2026-04-29 15:38 48.23327 19.13435 33180 ft 476 kts 168°
2026-04-29 15:38 48.17027 19.16475 33175 ft 476 kts 168°
2026-04-29 15:39 48.10728 19.19505 33146 ft 474 kts 169°
2026-04-29 15:39 48.04461 19.22514 33165 ft 473 kts 169°
2026-04-29 15:40 47.98217 19.25504 33168 ft 472 kts 169°
2026-04-29 15:40 47.91966 19.28490 33167 ft 471 kts 169°
2026-04-29 15:41 47.85727 19.31463 33152 ft 470 kts 169°
2026-04-29 15:41 47.79502 19.34423 33165 ft 469 kts 169°
2026-04-29 15:42 47.73278 19.37372 33168 ft 469 kts 169°
2026-04-29 15:42 47.67067 19.40309 33173 ft 469 kts 169°
2026-04-29 15:43 47.60859 19.43238 33170 ft 468 kts 170°
2026-04-29 15:43 47.54655 19.46157 33178 ft 468 kts 170°
2026-04-29 15:44 47.48499 19.49046 33184 ft 468 kts 170°
2026-04-29 15:44 47.42249 19.51972 33197 ft 468 kts 170°
2026-04-29 15:45 47.36077 19.54856 33174 ft 468 kts 171°
2026-04-29 15:45 47.29864 19.57749 33183 ft 468 kts 170°
2026-04-29 15:46 47.23651 19.60637 33195 ft 469 kts 170°
2026-04-29 15:46 47.17430 19.63523 33200 ft 469 kts 170°
2026-04-29 15:47 47.11200 19.66405 33196 ft 469 kts 170°
2026-04-29 15:47 47.04968 19.69279 33190 ft 470 kts 170°
2026-04-29 15:48 46.98743 19.72145 33185 ft 470 kts 170°
2026-04-29 15:48 46.92507 19.75010 33185 ft 470 kts 170°
2026-04-29 15:49 46.86290 19.77857 33178 ft 468 kts 171°
2026-04-29 15:49 46.80081 19.80693 33186 ft 467 kts 171°
2026-04-29 15:50 46.73876 19.83524 33186 ft 467 kts 171°
2026-04-29 15:50 46.67675 19.86342 33156 ft 467 kts 171°
2026-04-29 15:51 46.61474 19.89151 33182 ft 467 kts 171°
2026-04-29 15:51 46.55260 19.91963 33196 ft 468 kts 171°
2026-04-29 15:52 46.49035 19.94772 33195 ft 470 kts 171°
2026-04-29 15:52 46.42785 19.97586 33170 ft 470 kts 171°
2026-04-29 15:53 46.36639 20.00348 33186 ft 471 kts 171°
2026-04-29 15:53 46.30375 20.03156 33186 ft 472 kts 171°
2026-04-29 15:54 46.24103 20.05961 33179 ft 472 kts 171°
2026-04-29 15:54 46.17830 20.08762 33180 ft 471 kts 171°
2026-04-29 15:55 46.11626 20.11719 33175 ft 474 kts 168°
2026-04-29 15:55 46.05431 20.15034 33175 ft 475 kts 167°
2026-04-29 15:56 45.99264 20.18348 33189 ft 474 kts 168°
2026-04-29 15:56 45.93075 20.21615 33180 ft 475 kts 168°
2026-04-29 15:57 45.86786 20.24883 33307 ft 487 kts 168°
2026-04-29 15:57 45.83587 20.26540 33467 ft 490 kts 168°
2026-04-29 15:57 45.80378 20.28205 33750 ft 491 kts 168°
2026-04-29 15:57 45.77170 20.29872 34121 ft 489 kts 168°
2026-04-29 15:58 45.73975 20.31532 34378 ft 488 kts 168°
2026-04-29 15:58 45.70777 20.33189 34609 ft 489 kts 167°
2026-04-29 15:58 45.67577 20.34844 34843 ft 489 kts 167°
2026-04-29 15:58 45.64374 20.36497 35122 ft 489 kts 167°
2026-04-29 15:59 45.61180 20.38144 35388 ft 488 kts 167°
2026-04-29 15:59 45.57984 20.39789 35630 ft 488 kts 167°
2026-04-29 15:59 45.54789 20.41431 35880 ft 488 kts 167°
2026-04-29 15:59 45.51594 20.43072 36115 ft 487 kts 167°
2026-04-29 16:00 45.48411 20.44704 36406 ft 485 kts 167°
2026-04-29 16:00 45.45235 20.46331 36629 ft 486 kts 166°
2026-04-29 16:00 45.42051 20.47961 36825 ft 486 kts 166°
2026-04-29 16:00 45.38866 20.49589 37047 ft 486 kts 166°
2026-04-29 16:01 45.35686 20.51212 37188 ft 487 kts 166°
2026-04-29 16:01 45.29284 20.54473 37140 ft 487 kts 166°
2026-04-29 16:02 45.24015 20.57157 37170 ft 482 kts 166°
2026-04-29 16:02 45.17720 20.60354 37159 ft 479 kts 166°
2026-04-29 16:03 45.11461 20.63520 37173 ft 477 kts 166°
2026-04-29 16:03 45.05213 20.66673 37145 ft 477 kts 166°
2026-04-29 16:04 44.98969 20.69816 37180 ft 477 kts 166°
2026-04-29 16:04 44.92701 20.72965 37176 ft 479 kts 166°
2026-04-29 16:05 44.86402 20.76124 37176 ft 481 kts 166°
2026-04-29 16:05 44.80079 20.79288 37173 ft 483 kts 166°
2026-04-29 16:06 44.73727 20.82460 37170 ft 485 kts 166°
2026-04-29 16:06 44.67359 20.85632 37168 ft 486 kts 166°
2026-04-29 16:07 44.61023 20.88781 37152 ft 487 kts 167°
2026-04-29 16:07 44.54651 20.91941 37158 ft 485 kts 167°
2026-04-29 16:08 44.48292 20.95086 37166 ft 484 kts 167°
2026-04-29 16:08 44.41952 20.98215 37163 ft 483 kts 167°
2026-04-29 16:09 44.35722 21.01282 37182 ft 481 kts 167°
2026-04-29 16:09 44.29415 21.04382 37167 ft 480 kts 167°
2026-04-29 16:10 44.23109 21.07470 37158 ft 480 kts 167°
2026-04-29 16:10 44.16819 21.10544 37130 ft 478 kts 167°
2026-04-29 16:11 44.10549 21.13605 37162 ft 477 kts 167°
2026-04-29 16:11 44.04276 21.16657 37156 ft 477 kts 167°
2026-04-29 16:12 43.98016 21.19695 37155 ft 478 kts 167°
2026-04-29 16:12 43.91741 21.22735 37140 ft 477 kts 167°
2026-04-29 16:13 43.85465 21.25769 37156 ft 478 kts 167°
2026-04-29 16:13 43.79178 21.28801 37140 ft 479 kts 167°
2026-04-29 16:14 43.72887 21.31829 37122 ft 479 kts 167°
2026-04-29 16:14 43.66596 21.34853 37124 ft 479 kts 167°
2026-04-29 16:15 43.60297 21.37871 37127 ft 480 kts 167°
2026-04-29 16:15 43.53984 21.40889 37118 ft 481 kts 167°
2026-04-29 16:16 43.47662 21.43904 37110 ft 480 kts 167°
2026-04-29 16:16 43.41351 21.46910 37104 ft 479 kts 167°
2026-04-29 16:17 43.35047 21.49903 37110 ft 479 kts 167°
2026-04-29 16:17 43.28759 21.52884 37090 ft 477 kts 167°
2026-04-29 16:18 43.22485 21.55850 37087 ft 477 kts 167°
2026-04-29 16:18 43.16217 21.58809 37086 ft 476 kts 166°
2026-04-29 16:19 43.10002 21.61738 37070 ft 475 kts 167°
2026-04-29 16:19 43.03749 21.64673 37111 ft 477 kts 167°
2026-04-29 16:19 43.00603 21.66147 37253 ft 478 kts 167°
2026-04-29 16:20 42.97471 21.67615 37517 ft 477 kts 167°
2026-04-29 16:20 42.94337 21.69084 37805 ft 476 kts 167°
2026-04-29 16:20 42.91207 21.70551 38024 ft 476 kts 167°
2026-04-29 16:20 42.88075 21.72019 38174 ft 476 kts 166°
2026-04-29 16:21 42.84938 21.73486 38348 ft 477 kts 166°
2026-04-29 16:21 42.81793 21.74954 38480 ft 478 kts 166°
2026-04-29 16:21 42.78646 21.76426 38680 ft 478 kts 166°
2026-04-29 16:21 42.75504 21.77893 38881 ft 477 kts 166°
2026-04-29 16:22 42.72369 21.79349 39052 ft 475 kts 166°
2026-04-29 16:22 42.66082 21.82268 39051 ft 479 kts 166°
2026-04-29 16:23 42.59781 21.85203 39049 ft 478 kts 166°
2026-04-29 16:23 42.53494 21.88122 39044 ft 478 kts 166°
2026-04-29 16:24 42.47203 21.91028 39054 ft 478 kts 166°
2026-04-29 16:24 42.40908 21.93932 39037 ft 478 kts 166°
2026-04-29 16:25 42.34621 21.96827 39026 ft 477 kts 166°
2026-04-29 16:25 42.28342 21.99715 39019 ft 476 kts 166°
2026-04-29 16:26 42.22184 22.02538 39010 ft 476 kts 166°
2026-04-29 16:26 42.15915 22.05403 39003 ft 475 kts 166°
2026-04-29 16:27 42.09669 22.08256 38996 ft 473 kts 166°
2026-04-29 16:27 42.03444 22.11091 38987 ft 472 kts 166°
2026-04-29 16:28 41.97236 22.13915 38993 ft 472 kts 166°
2026-04-29 16:28 41.91022 22.16734 38997 ft 471 kts 166°
2026-04-29 16:29 41.84813 22.19544 39003 ft 471 kts 166°
2026-04-29 16:29 41.78596 22.22354 39002 ft 471 kts 166°
2026-04-29 16:30 41.72421 22.25137 39002 ft 472 kts 166°
2026-04-29 16:30 41.66184 22.27945 39002 ft 473 kts 166°
2026-04-29 16:31 41.59943 22.30751 38989 ft 473 kts 166°
2026-04-29 16:31 41.53701 22.33547 39006 ft 473 kts 166°
2026-04-29 16:32 41.47456 22.36341 39019 ft 473 kts 166°
2026-04-29 16:32 41.41216 22.39125 39023 ft 473 kts 166°
2026-04-29 16:33 41.31858 22.43295 39022 ft 472 kts 166°
2026-04-29 16:33 41.25647 22.46055 39028 ft 470 kts 166°
2026-04-29 16:34 41.19445 22.48801 39033 ft 469 kts 166°
2026-04-29 16:34 41.13261 22.51539 39032 ft 468 kts 165°
2026-04-29 16:35 41.07173 22.54613 39044 ft 469 kts 162°
2026-04-29 16:35 41.01143 22.57914 39041 ft 469 kts 161°
2026-04-29 16:36 40.95130 22.61194 39046 ft 468 kts 162°
2026-04-29 16:36 40.89098 22.64435 39042 ft 468 kts 162°
2026-04-29 16:37 40.83056 22.67652 39049 ft 468 kts 162°
2026-04-29 16:37 40.78033 22.70318 39049 ft 468 kts 162°
2026-04-29 16:38 40.70961 22.74067 39023 ft 469 kts 162°
2026-04-29 16:38 40.64907 22.77272 39042 ft 469 kts 162°
2026-04-29 16:39 40.58853 22.80470 39050 ft 469 kts 162°
2026-04-29 16:39 40.52789 22.83667 39050 ft 470 kts 162°
2026-04-29 16:40 40.46713 22.86864 39052 ft 471 kts 162°
2026-04-29 16:40 40.40516 22.90119 39050 ft 472 kts 162°
2026-04-29 16:41 40.34523 22.93262 39052 ft 472 kts 162°
2026-04-29 16:41 40.28411 22.96461 39051 ft 473 kts 162°
2026-04-29 16:42 40.22293 22.99648 39044 ft 473 kts 162°
2026-04-29 16:42 40.16256 23.02721 39045 ft 473 kts 162°
2026-04-29 16:43 40.10127 23.05814 39046 ft 472 kts 162°
2026-04-29 16:43 40.04012 23.08901 39050 ft 471 kts 162°
2026-04-29 16:44 39.97918 23.11977 39045 ft 470 kts 162°
2026-04-29 16:44 39.91821 23.15057 39053 ft 470 kts 162°
2026-04-29 16:45 39.85729 23.18127 39052 ft 469 kts 162°
2026-04-29 16:45 39.79640 23.21188 39035 ft 469 kts 162°
2026-04-29 16:46 39.73601 23.24216 39050 ft 468 kts 162°
2026-04-29 16:46 39.67527 23.27258 39052 ft 468 kts 162°
2026-04-29 16:47 39.61453 23.30293 39055 ft 468 kts 162°
2026-04-29 16:47 39.55380 23.33322 39046 ft 468 kts 162°
2026-04-29 16:48 39.49307 23.36347 39053 ft 467 kts 162°
2026-04-29 16:48 39.44218 23.38875 39056 ft 468 kts 162°
2026-04-29 16:49 39.38180 23.41872 39054 ft 468 kts 162°
2026-04-29 16:49 39.32094 23.44887 39040 ft 469 kts 162°
2026-04-29 16:50 39.26006 23.47897 39053 ft 469 kts 162°
2026-04-29 16:50 39.19913 23.50905 39050 ft 469 kts 162°
2026-04-29 16:51 39.13813 23.53908 39049 ft 469 kts 162°
2026-04-29 16:51 39.07712 23.56906 39041 ft 469 kts 162°
2026-04-29 16:52 39.01610 23.59898 39050 ft 469 kts 162°
2026-04-29 16:52 38.95520 23.62881 39053 ft 470 kts 162°
2026-04-29 16:53 38.89411 23.65869 39056 ft 470 kts 162°
2026-04-29 16:53 38.83303 23.68847 39046 ft 469 kts 162°
2026-04-29 16:54 38.77199 23.71821 39055 ft 469 kts 162°
2026-04-29 16:54 38.71096 23.74790 39055 ft 469 kts 162°
2026-04-29 16:55 38.64990 23.77754 39055 ft 469 kts 162°
2026-04-29 16:55 38.58881 23.80711 39051 ft 469 kts 162°
2026-04-29 16:56 38.52773 23.83664 39057 ft 469 kts 162°
2026-04-29 16:56 38.46669 23.86611 39068 ft 469 kts 162°
2026-04-29 16:57 38.40565 23.89552 39073 ft 468 kts 162°
2026-04-29 16:57 38.34478 23.92475 39065 ft 467 kts 162°
2026-04-29 16:58 38.28403 23.95394 39069 ft 466 kts 162°
2026-04-29 16:58 38.22379 23.98282 39072 ft 465 kts 162°
2026-04-29 16:59 38.16420 24.01134 39072 ft 465 kts 162°
2026-04-29 16:59 38.10326 24.04042 39071 ft 465 kts 162°
2026-04-29 17:00 38.04279 24.06924 39076 ft 464 kts 163°
2026-04-29 17:00 37.98245 24.09794 39079 ft 464 kts 163°
2026-04-29 17:01 37.92204 24.12666 39080 ft 464 kts 163°
2026-04-29 17:01 37.86153 24.15533 39076 ft 464 kts 163°
2026-04-29 17:02 37.80101 24.18397 39072 ft 465 kts 163°
2026-04-29 17:02 37.74079 24.21241 39077 ft 465 kts 163°
2026-04-29 17:03 37.68009 24.24107 39081 ft 466 kts 163°
2026-04-29 17:03 37.61935 24.26968 39069 ft 466 kts 163°
2026-04-29 17:04 37.55865 24.29875 39071 ft 469 kts 159°
2026-04-29 17:04 37.50173 24.34027 38642 ft 479 kts 150°
2026-04-29 17:05 37.47366 24.36293 38088 ft 478 kts 149°
2026-04-29 17:05 37.44576 24.38552 37544 ft 475 kts 150°
2026-04-29 17:05 37.41798 24.40785 36978 ft 473 kts 150°
2026-04-29 17:05 37.39023 24.42989 36442 ft 471 kts 150°
2026-04-29 17:06 37.36259 24.45166 36054 ft 465 kts 150°
2026-04-29 17:06 37.33530 24.47306 35646 ft 461 kts 150°
2026-04-29 17:06 37.30818 24.49426 35235 ft 457 kts 150°
2026-04-29 17:06 37.28130 24.51524 34832 ft 453 kts 150°
2026-04-29 17:07 37.25463 24.53604 34441 ft 450 kts 150°
2026-04-29 17:07 37.22813 24.55669 34041 ft 447 kts 150°
2026-04-29 17:07 37.20184 24.57716 33593 ft 444 kts 150°
2026-04-29 17:07 37.17569 24.59752 33176 ft 440 kts 150°
2026-04-29 17:08 37.14975 24.61770 32794 ft 436 kts 149°
2026-04-29 17:08 37.12408 24.63766 32398 ft 433 kts 149°
2026-04-29 17:08 37.09858 24.65747 32024 ft 429 kts 149°
2026-04-29 17:08 37.07330 24.67709 31639 ft 426 kts 149°
2026-04-29 17:09 37.04814 24.69659 31270 ft 423 kts 149°
2026-04-29 17:09 37.02322 24.71591 30901 ft 421 kts 149°
2026-04-29 17:09 36.99852 24.73504 30538 ft 418 kts 149°
2026-04-29 17:09 36.97387 24.75411 30174 ft 415 kts 149°
2026-04-29 17:10 36.94936 24.77308 29756 ft 413 kts 149°
2026-04-29 17:10 36.92505 24.79186 29384 ft 409 kts 149°
2026-04-29 17:10 36.90103 24.81045 29029 ft 404 kts 149°
2026-04-29 17:10 36.87728 24.82890 28662 ft 400 kts 149°
2026-04-29 17:11 36.85369 24.84723 28269 ft 398 kts 149°
2026-04-29 17:11 36.83028 24.86542 27898 ft 395 kts 149°
2026-04-29 17:11 36.80692 24.88354 27545 ft 396 kts 149°
2026-04-29 17:11 36.78343 24.90174 27167 ft 399 kts 149°
2026-04-29 17:12 36.75995 24.91994 26786 ft 396 kts 149°
2026-04-29 17:12 36.73658 24.93803 26421 ft 394 kts 149°
2026-04-29 17:12 36.71340 24.95595 26064 ft 391 kts 149°
2026-04-29 17:12 36.69813 24.96774 25822 ft 389 kts 149°
2026-04-29 17:13 36.66742 24.99131 25349 ft 386 kts 149°
2026-04-29 17:13 36.64541 25.00816 25008 ft 383 kts 149°
2026-04-29 17:13 36.62274 25.02549 24656 ft 381 kts 149°
2026-04-29 17:13 36.60020 25.04272 24300 ft 379 kts 150°
2026-04-29 17:14 36.57774 25.05987 23954 ft 378 kts 150°
2026-04-29 17:14 36.55541 25.07692 23598 ft 376 kts 150°
2026-04-29 17:14 36.53317 25.09389 23187 ft 374 kts 150°
2026-04-29 17:14 36.51105 25.11076 22826 ft 371 kts 150°
2026-04-29 17:15 36.48912 25.12747 22463 ft 369 kts 150°
2026-04-29 17:15 36.46735 25.14406 22118 ft 366 kts 150°
2026-04-29 17:15 36.44598 25.16034 21766 ft 364 kts 149°
2026-04-29 17:15 36.42418 25.17693 21423 ft 362 kts 149°
2026-04-29 17:16 36.40305 25.19300 21074 ft 360 kts 149°
2026-04-29 17:16 36.38145 25.20942 20722 ft 358 kts 149°
2026-04-29 17:16 36.36048 25.22533 20382 ft 357 kts 150°
2026-04-29 17:16 36.33906 25.24157 20029 ft 356 kts 150°
2026-04-29 17:17 36.31796 25.25757 19693 ft 354 kts 150°
2026-04-29 17:17 36.29698 25.27348 19349 ft 353 kts 150°
2026-04-29 17:17 36.27607 25.28933 19010 ft 352 kts 150°
2026-04-29 17:17 36.25518 25.30514 18672 ft 351 kts 150°
2026-04-29 17:18 36.23463 25.32068 18326 ft 350 kts 149°
2026-04-29 17:18 36.21389 25.33637 18074 ft 347 kts 149°
2026-04-29 17:18 36.19351 25.35177 18047 ft 339 kts 150°
2026-04-29 17:18 36.17304 25.36723 17330 ft 346 kts 149°
2026-04-29 17:19 36.15275 25.38256 16901 ft 339 kts 149°
2026-04-29 17:19 36.13285 25.39756 16560 ft 331 kts 150°
2026-04-29 17:19 36.11248 25.41036 16218 ft 328 kts 161°
2026-04-29 17:19 36.09081 25.41952 15912 ft 331 kts 163°
2026-04-29 17:20 36.06867 25.42812 15567 ft 335 kts 164°
2026-04-29 17:20 36.04643 25.43666 15227 ft 334 kts 164°
2026-04-29 17:20 36.02427 25.44527 14896 ft 334 kts 163°
2026-04-29 17:20 36.00215 25.45397 14556 ft 333 kts 163°
2026-04-29 17:21 35.98026 25.46267 14213 ft 329 kts 163°
2026-04-29 17:21 35.95873 25.47128 13873 ft 321 kts 163°
2026-04-29 17:21 35.93771 25.47971 13506 ft 314 kts 163°
2026-04-29 17:21 35.91709 25.48799 13173 ft 310 kts 163°
2026-04-29 17:22 35.89670 25.49618 12849 ft 308 kts 162°
2026-04-29 17:22 35.87637 25.50434 12535 ft 306 kts 162°
2026-04-29 17:22 35.85636 25.51237 12210 ft 299 kts 162°
2026-04-29 17:22 35.83681 25.52021 11904 ft 292 kts 162°
2026-04-29 17:23 35.81768 25.52788 11603 ft 286 kts 162°
2026-04-29 17:23 35.79894 25.53539 11313 ft 280 kts 162°
2026-04-29 17:23 35.78067 25.54271 11101 ft 271 kts 162°
2026-04-29 17:23 35.76316 25.54973 11056 ft 261 kts 162°
2026-04-29 17:24 35.74583 25.55666 10839 ft 267 kts 162°
2026-04-29 17:24 35.72761 25.56395 10395 ft 273 kts 162°
2026-04-29 17:24 35.70988 25.57106 10186 ft 264 kts 152°
2026-04-29 17:24 35.69594 25.58457 10093 ft 251 kts 134°
2026-04-29 17:25 35.68328 25.59956 9773 ft 255 kts 135°
2026-04-29 17:25 35.67050 25.61456 9531 ft 254 kts 135°
2026-04-29 17:25 35.65770 25.62953 9275 ft 254 kts 135°
2026-04-29 17:25 35.64490 25.64446 9028 ft 253 kts 135°
2026-04-29 17:26 35.63225 25.65920 8820 ft 246 kts 135°
2026-04-29 17:26 35.61997 25.67343 8588 ft 241 kts 135°
2026-04-29 17:26 35.60796 25.68727 8395 ft 232 kts 135°
2026-04-29 17:26 35.59502 25.69825 8270 ft 225 kts 165°
2026-04-29 17:27 35.57976 25.70060 8269 ft 223 kts 175°
2026-04-29 17:27 35.56405 25.70228 8172 ft 229 kts 175°
2026-04-29 17:27 35.54809 25.70404 8112 ft 231 kts 175°
2026-04-29 17:27 35.53214 25.70579 8085 ft 229 kts 175°
2026-04-29 17:28 35.51631 25.70748 8079 ft 227 kts 180°
2026-04-29 17:28 35.50150 25.70243 7979 ft 223 kts 219°
2026-04-29 17:28 35.48972 25.68967 7788 ft 229 kts 225°
2026-04-29 17:28 35.47790 25.67638 7542 ft 231 kts 225°
2026-04-29 17:29 35.46617 25.66327 7298 ft 232 kts 225°
2026-04-29 17:29 35.45423 25.64988 7059 ft 233 kts 225°
2026-04-29 17:29 35.44226 25.63644 6827 ft 234 kts 225°
2026-04-29 17:29 35.43433 25.62717 6695 ft 231 kts 232°
2026-04-29 17:30 35.42482 25.60509 6598 ft 217 kts 249°
2026-04-29 17:30 35.41855 25.58839 6427 ft 215 kts 248°
2026-04-29 17:30 35.41216 25.57184 6214 ft 214 kts 247°
2026-04-29 17:30 35.40568 25.55542 5999 ft 214 kts 247°
2026-04-29 17:31 35.39914 25.53909 5814 ft 212 kts 246°
2026-04-29 17:31 35.39259 25.52295 5615 ft 211 kts 246°
2026-04-29 17:31 35.38603 25.50688 5406 ft 211 kts 246°
2026-04-29 17:31 35.37946 25.49085 5216 ft 210 kts 246°
2026-04-29 17:32 35.37294 25.47500 5004 ft 207 kts 246°
2026-04-29 17:32 35.36646 25.45928 4742 ft 207 kts 246°
2026-04-29 17:32 35.36009 25.44347 4448 ft 207 kts 248°
2026-04-29 17:32 35.35400 25.42760 4183 ft 206 kts 248°
2026-04-29 17:33 35.34794 25.41175 3923 ft 205 kts 248°
2026-04-29 17:33 35.34393 25.40131 3749 ft 205 kts 248°
2026-04-29 17:33 35.33787 25.38554 3485 ft 205 kts 248°
2026-04-29 17:33 35.33180 25.36977 3209 ft 204 kts 247°
2026-04-29 17:34 35.32747 25.35346 2991 ft 197 kts 271°
2026-04-29 17:34 35.32898 25.33678 2748 ft 193 kts 281°
2026-04-29 17:34 35.33025 25.32051 2466 ft 188 kts 276°
2026-04-29 17:34 35.33121 25.30511 2190 ft 180 kts 276°
2026-04-29 17:35 35.33284 25.28080 1778 ft 160 kts 276°
2026-04-29 17:35 35.33403 25.26345 1455 ft 151 kts 275°
2026-04-29 17:35 35.33485 25.25061 1246 ft 152 kts 275°
2026-04-29 17:36 35.33576 25.23775 1008 ft 152 kts 274°
2026-04-29 17:36 35.33666 25.22491 780 ft 150 kts 274°
2026-04-29 17:36 35.33753 25.21219 551 ft 150 kts 274°
2026-04-29 17:36 35.33844 25.19945 311 ft 150 kts 274°
2026-04-29 17:37 35.33932 25.18669 105 ft 148 kts 274°
2026-04-29 17:37 35.34008 25.17542 90 ft 109 kts 275°
2026-04-29 17:37 35.34055 25.16879 89 ft 48 kts 275°
2026-04-29 17:37 35.34065 25.16723 89 ft 0 kts 275°
2026-04-29 17:38 35.34066 25.16714 89 ft 4 kts 275°
2026-04-29 17:38 35.34063 25.16667 90 ft 8 kts 249°
2026-04-29 17:38 35.34016 25.16673 89 ft 9 kts 131°
2026-04-29 17:38 35.33979 25.16738 90 ft 9 kts 120°
2026-04-29 17:39 35.33960 25.16811 90 ft 9 kts 98°
2026-04-29 17:39 35.33954 25.16885 91 ft 9 kts 95°
2026-04-29 17:39 35.33949 25.16958 89 ft 8 kts 94°
2026-04-29 17:39 35.33944 25.17039 89 ft 11 kts 94°
2026-04-29 17:40 35.33936 25.17155 89 ft 16 kts 94°
2026-04-29 17:40 35.33927 25.17287 90 ft 15 kts 95°
2026-04-29 17:40 35.33918 25.17412 90 ft 13 kts 94°
2026-04-29 17:40 35.33912 25.17481 92 ft 5 kts 107°
2026-04-29 17:41 35.33884 25.17500 90 ft 5 kts 173°
2026-04-29 17:41 35.33847 25.17497 92 ft 7 kts 186°
2026-04-29 17:41 35.33802 25.17479 90 ft 7 kts 242°
2026-04-29 17:41 35.33810 25.17428 90 ft 2 kts 315°
2026-04-29 17:42 35.33817 25.17420 90 ft 0 kts 317°
2026-04-29 17:42 35.33817 25.17419 90 ft 0 kts 317°